Time,TemperatureF,DewpointF,PressureIn,WindDirection,WindDirectionDegrees,WindSpeedMPH,WindSpeedGustMPH,Humidity,HourlyPrecipIn,Conditions,Clouds,dailyrainin,SoftwareType,DateUTC
2013-10-13 00:00:00,59.4,56.5,30.16,ENE,64,0.0,2.0,90,0.00,,,0.53,Wunderground v.1.15,2013-10-13 05:00:00,
2013-10-13 00:06:00,59.6,56.4,30.16,East,95,1.0,2.0,89,0.00,,,0.00,Wunderground v.1.15,2013-10-13 05:06:00,
2013-10-13 00:12:00,59.7,56.1,30.16,ENE,73,1.0,1.0,88,0.00,,,0.00,Wunderground v.1.15,2013-10-13 05:12:00,
2013-10-13 00:17:00,59.8,56.2,30.17,ESE,112,1.0,2.0,88,0.00,,,0.00,Wunderground v.1.15,2013-10-13 05:17:00,
2013-10-13 00:23:00,59.8,56.2,30.17,East,91,0.0,2.0,88,0.00,,,0.00,Wunderground v.1.15,2013-10-13 05:23:00,
2013-10-13 00:29:00,59.8,56.6,30.17,East,101,0.0,2.0,89,0.00,,,0.00,Wunderground v.1.15,2013-10-13 05:29:00,
2013-10-13 00:35:00,59.8,56.2,30.17,East,101,0.0,4.0,88,0.00,,,0.00,Wunderground v.1.15,2013-10-13 05:35:00,
2013-10-13 00:40:00,59.8,56.2,30.17,ESE,113,0.0,4.0,88,0.00,,,0.00,Wunderground v.1.15,2013-10-13 05:40:00,
2013-10-13 00:46:00,59.8,56.6,30.17,ENE,65,0.0,4.0,89,0.00,,,0.00,Wunderground v.1.15,2013-10-13 05:46:00,
2013-10-13 00:52:00,59.8,56.6,30.17,NE,54,0.0,4.0,89,0.00,,,0.00,Wunderground v.1.15,2013-10-13 05:52:00,
2013-10-13 00:58:00,59.6,56.4,30.17,ESE,108,0.0,4.0,89,0.00,,,0.00,Wunderground v.1.15,2013-10-13 05:58:00,
2013-10-13 01:03:00,59.3,55.7,30.17,ESE,105,0.0,1.0,88,0.00,,,0.00,Wunderground v.1.15,2013-10-13 06:03:00,
2013-10-13 01:09:00,59.2,56.0,30.17,ESE,108,0.0,1.0,89,0.00,,,0.00,Wunderground v.1.15,2013-10-13 06:09:00,
2013-10-13 01:15:00,59.1,55.9,30.17,East,101,1.0,1.0,89,0.00,,,0.00,Wunderground v.1.15,2013-10-13 06:15:00,
2013-10-13 01:20:00,58.9,55.7,30.17,East,84,1.0,1.0,89,0.00,,,0.00,Wunderground v.1.15,2013-10-13 06:20:00,
2013-10-13 01:26:00,58.7,55.5,30.17,ENE,64,0.0,2.0,89,0.00,,,0.00,Wunderground v.1.15,2013-10-13 06:26:00,
2013-10-13 01:32:00,58.5,55.3,30.17,ENE,64,0.0,3.0,89,0.00,,,0.00,Wunderground v.1.15,2013-10-13 06:32:00,
2013-10-13 01:38:00,58.2,55.0,30.18,ENE,64,0.0,3.0,89,0.00,,,0.00,Wunderground v.1.15,2013-10-13 06:38:00,
2013-10-13 01:43:00,58.0,55.1,30.18,ENE,76,0.0,3.0,90,0.00,,,0.00,Wunderground v.1.15,2013-10-13 06:43:00,
2013-10-13 01:49:00,57.9,54.7,30.19,East,101,0.0,3.0,89,0.00,,,0.00,Wunderground v.1.15,2013-10-13 06:49:00,
2013-10-13 01:55:00,57.8,54.6,30.19,East,96,0.0,3.0,89,0.00,,,0.00,Wunderground v.1.15,2013-10-13 06:55:00,
2013-10-13 02:00:00,57.7,54.5,30.19,East,96,0.0,0.0,89,0.00,,,0.00,Wunderground v.1.15,2013-10-13 07:00:00,
2013-10-13 02:05:00,57.5,54.3,30.19,East,98,0.0,0.0,89,0.00,,,0.00,Wunderground v.1.15,2013-10-13 07:05:00,
2013-10-13 02:11:00,57.2,54.0,30.19,East,99,0.0,0.0,89,0.00,,,0.00,Wunderground v.1.15,2013-10-13 07:11:00,
2013-10-13 02:17:00,56.9,53.7,30.19,SE,124,0.0,0.0,89,0.00,,,0.00,Wunderground v.1.15,2013-10-13 07:17:00,
2013-10-13 02:23:00,56.8,53.6,30.19,SE,124,0.0,0.0,89,0.00,,,0.00,Wunderground v.1.15,2013-10-13 07:23:00,
2013-10-13 02:28:00,56.8,53.9,30.19,East,82,0.0,0.0,90,0.00,,,0.00,Wunderground v.1.15,2013-10-13 07:28:00,
2013-10-13 02:34:00,57.0,54.1,30.19,East,83,0.0,2.0,90,0.00,,,0.00,Wunderground v.1.15,2013-10-13 07:34:00,
2013-10-13 02:40:00,57.1,54.2,30.19,ESE,113,0.0,2.0,90,0.00,,,0.00,Wunderground v.1.15,2013-10-13 07:40:00,
2013-10-13 02:46:00,57.4,54.5,30.19,East,101,0.0,2.0,90,0.00,,,0.00,Wunderground v.1.15,2013-10-13 07:46:00,
2013-10-13 02:51:00,57.6,54.7,30.19,East,98,0.0,2.0,90,0.00,,,0.00,Wunderground v.1.15,2013-10-13 07:51:00,
2013-10-13 02:57:00,57.6,54.7,30.19,East,97,0.0,2.0,90,0.00,,,0.00,Wunderground v.1.15,2013-10-13 07:57:00,
2013-10-13 03:03:00,57.5,54.6,30.19,East,99,0.0,0.0,90,0.00,,,0.00,Wunderground v.1.15,2013-10-13 08:03:00,
2013-10-13 03:09:00,57.5,54.9,30.19,East,100,0.0,0.0,91,0.00,,,0.00,Wunderground v.1.15,2013-10-13 08:09:00,
2013-10-13 03:14:00,57.7,55.1,30.19,East,98,0.0,0.0,91,0.00,,,0.00,Wunderground v.1.15,2013-10-13 08:14:00,
2013-10-13 03:20:00,57.8,55.2,30.19,East,98,0.0,0.0,91,0.00,,,0.00,Wunderground v.1.15,2013-10-13 08:20:00,
2013-10-13 03:26:00,57.8,54.9,30.19,East,100,0.0,0.0,90,0.00,,,0.00,Wunderground v.1.15,2013-10-13 08:26:00,
2013-10-13 03:32:00,57.9,55.0,30.19,East,99,0.0,1.0,90,0.00,,,0.00,Wunderground v.1.15,2013-10-13 08:32:00,
2013-10-13 03:38:00,58.1,55.2,30.19,East,100,0.0,1.0,90,0.00,,,0.00,Wunderground v.1.15,2013-10-13 08:38:00,
2013-10-13 03:44:00,58.1,54.9,30.20,East,101,0.0,1.0,89,0.00,,,0.00,Wunderground v.1.15,2013-10-13 08:44:00,
2013-10-13 03:49:00,58.2,55.0,30.20,East,101,0.0,1.0,89,0.00,,,0.00,Wunderground v.1.15,2013-10-13 08:49:00,
2013-10-13 03:55:00,58.2,55.0,30.20,East,101,0.0,1.0,89,0.00,,,0.00,Wunderground v.1.15,2013-10-13 08:55:00,
2013-10-13 04:00:00,58.3,55.1,30.20,East,101,0.0,0.0,89,0.00,,,0.00,Wunderground v.1.15,2013-10-13 09:00:00,
2013-10-13 04:06:00,58.3,55.1,30.20,East,101,0.0,1.0,89,0.00,,,0.00,Wunderground v.1.15,2013-10-13 09:06:00,
2013-10-13 04:11:00,58.3,55.1,30.20,SW,235,0.0,0.0,89,0.00,,,0.00,Wunderground v.1.15,2013-10-13 09:11:00,
2013-10-13 04:17:00,58.4,55.2,30.20,SSW,210,0.0,0.0,89,0.00,,,0.00,Wunderground v.1.15,2013-10-13 09:17:00,
2013-10-13 04:23:00,58.5,55.0,30.21,SSE,166,0.0,0.0,88,0.00,,,0.00,Wunderground v.1.15,2013-10-13 09:23:00,
2013-10-13 04:29:00,58.5,55.0,30.21,SSE,166,0.0,0.0,88,0.00,,,0.00,Wunderground v.1.15,2013-10-13 09:29:00,
2013-10-13 04:34:00,58.6,55.1,30.21,SSE,166,0.0,0.0,88,0.00,,,0.00,Wunderground v.1.15,2013-10-13 09:34:00,
2013-10-13 04:40:00,58.6,55.1,30.22,SSE,166,0.0,0.0,88,0.00,,,0.00,Wunderground v.1.15,2013-10-13 09:40:00,
2013-10-13 04:46:00,58.6,54.7,30.22,East,95,0.0,2.0,87,0.00,,,0.00,Wunderground v.1.15,2013-10-13 09:46:00,
2013-10-13 04:52:00,58.8,54.6,30.22,East,79,1.0,1.0,86,0.00,,,0.00,Wunderground v.1.15,2013-10-13 09:52:00,
2013-10-13 04:58:00,58.9,54.7,30.22,ESE,109,1.0,2.0,86,0.00,,,0.00,Wunderground v.1.15,2013-10-13 09:58:00,
2013-10-13 05:04:00,58.8,54.0,30.22,ENE,63,2.0,2.0,84,0.00,,,0.00,Wunderground v.1.15,2013-10-13 10:04:00,
2013-10-13 05:10:00,58.6,53.8,30.22,ENE,73,1.0,1.0,84,0.00,,,0.00,Wunderground v.1.15,2013-10-13 10:10:00,
2013-10-13 05:15:00,58.4,53.9,30.22,ENE,76,1.0,1.0,85,0.00,,,0.00,Wunderground v.1.15,2013-10-13 10:15:00,
2013-10-13 05:21:00,58.3,54.1,30.23,ENE,76,0.0,0.0,86,0.00,,,0.00,Wunderground v.1.15,2013-10-13 10:21:00,
2013-10-13 05:27:00,58.2,53.4,30.23,NE,50,1.0,2.0,84,0.00,,,0.00,Wunderground v.1.15,2013-10-13 10:27:00,
2013-10-13 05:33:00,58.2,53.4,30.23,ESE,110,1.0,2.0,84,0.00,,,0.00,Wunderground v.1.15,2013-10-13 10:33:00,
2013-10-13 05:38:00,58.3,53.2,30.23,ESE,113,1.0,3.0,83,0.00,,,0.00,Wunderground v.1.15,2013-10-13 10:38:00,
2013-10-13 05:44:00,58.0,52.5,30.23,ESE,119,1.0,1.0,82,0.00,,,0.00,Wunderground v.1.15,2013-10-13 10:44:00,
2013-10-13 05:50:00,58.2,52.1,30.22,ESE,110,1.0,1.0,80,0.00,,,0.00,Wunderground v.1.15,2013-10-13 10:50:00,
2013-10-13 05:56:00,58.4,51.6,30.23,East,86,2.0,4.0,78,0.00,,,0.00,Wunderground v.1.15,2013-10-13 10:56:00,
2013-10-13 06:02:00,58.2,51.4,30.24,ENE,57,1.0,1.0,78,0.00,,,0.00,Wunderground v.1.15,2013-10-13 11:02:00,
2013-10-13 06:08:00,58.2,51.4,30.24,ESE,113,0.0,2.0,78,0.00,,,0.00,Wunderground v.1.15,2013-10-13 11:08:00,
2013-10-13 06:14:00,57.9,51.8,30.24,ESE,109,0.0,0.0,80,0.00,,,0.00,Wunderground v.1.15,2013-10-13 11:14:00,
2013-10-13 06:19:00,57.6,52.1,30.24,ESE,108,0.0,0.0,82,0.00,,,0.00,Wunderground v.1.15,2013-10-13 11:19:00,
2013-10-13 06:25:00,57.4,51.9,30.24,ESE,109,0.0,1.0,82,0.00,,,0.00,Wunderground v.1.15,2013-10-13 11:25:00,
2013-10-13 06:31:00,57.3,51.9,30.24,ENE,77,1.0,4.0,82,0.00,,,0.00,Wunderground v.1.15,2013-10-13 11:31:00,
2013-10-13 06:37:00,57.2,52.4,30.24,ENE,78,1.0,4.0,84,0.00,,,0.00,Wunderground v.1.15,2013-10-13 11:37:00,
2013-10-13 06:42:00,57.2,52.4,30.24,ENE,77,0.0,4.0,84,0.00,,,0.00,Wunderground v.1.15,2013-10-13 11:42:00,
2013-10-13 06:48:00,57.2,52.1,30.24,ENE,75,0.0,4.0,83,0.00,,,0.00,Wunderground v.1.15,2013-10-13 11:48:00,
2013-10-13 06:54:00,57.2,52.4,30.24,ENE,77,0.0,4.0,84,0.00,,,0.00,Wunderground v.1.15,2013-10-13 11:54:00,
2013-10-13 07:00:00,57.0,52.2,30.25,NE,44,0.0,0.0,84,0.00,,,0.00,Wunderground v.1.15,2013-10-13 12:00:00,
2013-10-13 07:06:00,57.0,51.6,30.25,East,87,0.0,1.0,82,0.00,,,0.00,Wunderground v.1.15,2013-10-13 12:06:00,
2013-10-13 07:12:00,57.4,51.6,30.25,East,83,1.0,1.0,81,0.00,,,0.00,Wunderground v.1.15,2013-10-13 12:12:00,
2013-10-13 07:18:00,57.8,52.7,30.26,SE,127,1.0,1.0,83,0.00,,,0.00,Wunderground v.1.15,2013-10-13 12:18:00,
2013-10-13 07:24:00,57.9,52.8,30.26,ENE,75,0.0,1.0,83,0.00,,,0.00,Wunderground v.1.15,2013-10-13 12:24:00,
2013-10-13 07:29:00,58.0,52.2,30.25,ENE,70,1.0,2.0,81,0.00,,,0.00,Wunderground v.1.15,2013-10-13 12:29:00,
2013-10-13 07:35:00,58.3,51.8,30.26,ENE,75,1.0,3.0,79,0.00,,,0.00,Wunderground v.1.15,2013-10-13 12:35:00,
2013-10-13 07:41:00,58.6,51.4,30.26,ENE,72,2.0,3.0,77,0.00,,,0.00,Wunderground v.1.15,2013-10-13 12:41:00,
2013-10-13 07:47:00,58.8,51.2,30.27,East,100,2.0,3.0,76,0.00,,,0.00,Wunderground v.1.15,2013-10-13 12:47:00,
2013-10-13 07:53:00,59.0,51.4,30.27,ENE,76,2.0,3.0,76,0.00,,,0.00,Wunderground v.1.15,2013-10-13 12:53:00,
2013-10-13 07:59:00,59.1,51.9,30.27,NE,48,2.0,3.0,77,0.00,,,0.00,Wunderground v.1.15,2013-10-13 12:59:00,
2013-10-13 08:05:00,59.1,51.9,30.28,ENE,66,1.0,3.0,77,0.00,,,0.00,Wunderground v.1.15,2013-10-13 13:05:00,
2013-10-13 08:10:00,59.2,51.6,30.28,East,96,1.0,1.0,76,0.00,,,0.00,Wunderground v.1.15,2013-10-13 13:10:00,
2013-10-13 08:16:00,59.4,51.5,30.28,NE,42,2.0,2.0,75,0.00,,,0.00,Wunderground v.1.15,2013-10-13 13:16:00,
2013-10-13 08:22:00,59.6,51.7,30.28,ENE,67,2.0,2.0,75,0.00,,,0.00,Wunderground v.1.15,2013-10-13 13:22:00,
2013-10-13 08:28:00,59.8,52.2,30.29,North,1,1.0,2.0,76,0.00,,,0.00,Wunderground v.1.15,2013-10-13 13:28:00,
2013-10-13 08:33:00,59.8,52.2,30.29,ESE,121,1.0,3.0,76,0.00,,,0.00,Wunderground v.1.15,2013-10-13 13:33:00,
2013-10-13 08:39:00,59.9,52.0,30.29,ENE,64,2.0,4.0,75,0.00,,,0.00,Wunderground v.1.15,2013-10-13 13:39:00,
2013-10-13 08:45:00,60.1,51.0,30.29,ENE,61,3.0,3.0,72,0.00,,,0.00,Wunderground v.1.15,2013-10-13 13:45:00,
2013-10-13 08:51:00,60.2,50.8,30.30,NE,56,3.0,5.0,71,0.00,,,0.00,Wunderground v.1.15,2013-10-13 13:51:00,
2013-10-13 08:57:00,60.5,51.4,30.30,East,79,2.0,5.0,72,0.00,,,0.00,Wunderground v.1.15,2013-10-13 13:57:00,
2013-10-13 09:03:00,60.9,51.8,30.30,ESE,113,2.0,2.0,72,0.00,,,0.00,Wunderground v.1.15,2013-10-13 14:03:00,
2013-10-13 09:09:00,60.8,51.3,30.30,NNE,32,2.0,4.0,71,0.00,,,0.00,Wunderground v.1.15,2013-10-13 14:09:00,
2013-10-13 09:14:00,60.6,50.4,30.30,NE,48,2.0,5.0,69,0.00,,,0.00,Wunderground v.1.15,2013-10-13 14:14:00,
2013-10-13 09:20:00,60.6,50.8,30.30,NE,54,3.0,3.0,70,0.00,,,0.00,Wunderground v.1.15,2013-10-13 14:20:00,
2013-10-13 09:26:00,61.3,50.2,30.30,NE,51,3.0,5.0,67,0.00,,,0.00,Wunderground v.1.15,2013-10-13 14:26:00,
2013-10-13 09:32:00,61.7,50.2,30.30,East,83,3.0,4.0,66,0.00,,,0.00,Wunderground v.1.15,2013-10-13 14:32:00,
2013-10-13 09:37:00,62.0,49.3,30.31,NE,42,3.0,5.0,63,0.00,,,0.00,Wunderground v.1.15,2013-10-13 14:37:00,
2013-10-13 09:43:00,62.0,49.7,30.31,North,9,4.0,6.0,64,0.00,,,0.00,Wunderground v.1.15,2013-10-13 14:43:00,
2013-10-13 09:49:00,62.0,49.7,30.31,NE,56,3.0,6.0,64,0.00,,,0.00,Wunderground v.1.15,2013-10-13 14:49:00,
2013-10-13 09:55:00,62.1,48.9,30.31,East,86,3.0,4.0,62,0.00,,,0.00,Wunderground v.1.15,2013-10-13 14:55:00,
2013-10-13 10:01:00,62.3,49.1,30.31,ENE,58,3.0,3.0,62,0.00,,,0.00,Wunderground v.1.15,2013-10-13 15:01:00,
2013-10-13 10:06:00,62.5,49.7,30.31,East,83,3.0,4.0,63,0.00,,,0.00,Wunderground v.1.15,2013-10-13 15:06:00,
2013-10-13 10:12:00,63.0,49.3,30.31,SE,124,3.0,5.0,61,0.00,,,0.00,Wunderground v.1.15,2013-10-13 15:12:00,
2013-10-13 10:18:00,63.1,49.4,30.31,East,95,4.0,7.0,61,0.00,,,0.00,Wunderground v.1.15,2013-10-13 15:18:00,
2013-10-13 10:24:00,63.1,48.5,30.31,NE,54,4.0,8.0,59,0.00,,,0.00,Wunderground v.1.15,2013-10-13 15:24:00,
2013-10-13 10:29:00,63.7,48.2,30.31,ESE,111,4.0,8.0,57,0.00,,,0.00,Wunderground v.1.15,2013-10-13 15:29:00,
2013-10-13 10:35:00,64.1,47.6,30.32,NNE,18,4.0,9.0,55,0.00,,,0.00,Wunderground v.1.15,2013-10-13 15:35:00,
2013-10-13 10:41:00,64.3,49.2,30.32,East,97,4.0,7.0,58,0.00,,,0.00,Wunderground v.1.15,2013-10-13 15:41:00,
2013-10-13 10:46:00,64.9,49.3,30.32,ENE,57,3.0,7.0,57,0.00,,,0.00,Wunderground v.1.15,2013-10-13 15:46:00,
2013-10-13 10:52:00,65.1,49.0,30.32,ENE,65,3.0,7.0,56,0.00,,,0.00,Wunderground v.1.15,2013-10-13 15:52:00,
2013-10-13 10:58:00,65.5,48.9,30.31,East,98,4.0,7.0,55,0.00,,,0.00,Wunderground v.1.15,2013-10-13 15:58:00,
2013-10-13 11:04:00,65.9,48.8,30.31,NNE,23,3.0,4.0,54,0.00,,,0.00,Wunderground v.1.15,2013-10-13 16:04:00,
2013-10-13 11:10:00,65.9,49.3,30.32,NE,55,3.0,3.0,55,0.00,,,0.00,Wunderground v.1.15,2013-10-13 16:10:00,
2013-10-13 11:15:00,66.2,48.6,30.32,East,91,4.0,8.0,53,0.00,,,0.00,Wunderground v.1.15,2013-10-13 16:15:00,
2013-10-13 11:21:00,66.4,49.7,30.31,SE,127,4.0,5.0,55,0.00,,,0.00,Wunderground v.1.15,2013-10-13 16:21:00,
2013-10-13 11:27:00,66.7,49.5,30.31,ESE,117,3.0,5.0,54,0.00,,,0.00,Wunderground v.1.15,2013-10-13 16:27:00,
2013-10-13 11:33:00,66.8,50.1,30.31,NNE,30,3.0,12.0,55,0.00,,,0.00,Wunderground v.1.15,2013-10-13 16:33:00,
2013-10-13 11:39:00,66.9,49.2,30.31,NE,54,4.0,12.0,53,0.00,,,0.00,Wunderground v.1.15,2013-10-13 16:39:00,
2013-10-13 11:45:00,67.1,49.9,30.31,NE,50,4.0,12.0,54,0.00,,,0.00,Wunderground v.1.15,2013-10-13 16:45:00,
2013-10-13 11:51:00,67.5,48.2,30.31,NNE,25,3.0,12.0,50,0.00,,,0.00,Wunderground v.1.15,2013-10-13 16:51:00,
2013-10-13 11:56:00,67.9,49.1,30.31,East,81,4.0,12.0,51,0.00,,,0.00,Wunderground v.1.15,2013-10-13 16:56:00,
2013-10-13 12:02:00,68.1,48.8,30.31,ENE,71,4.0,6.0,50,0.00,,,0.00,Wunderground v.1.15,2013-10-13 17:02:00,
2013-10-13 12:08:00,68.5,49.7,30.30,NE,49,3.0,6.0,51,0.00,,,0.00,Wunderground v.1.15,2013-10-13 17:08:00,
2013-10-13 12:14:00,68.8,49.9,30.30,ENE,77,3.0,5.0,51,0.00,,,0.00,Wunderground v.1.15,2013-10-13 17:14:00,
2013-10-13 12:19:00,68.7,49.8,30.30,ENE,59,3.0,7.0,51,0.00,,,0.00,Wunderground v.1.15,2013-10-13 17:19:00,
2013-10-13 12:25:00,68.7,50.4,30.30,East,88,4.0,7.0,52,0.00,,,0.00,Wunderground v.1.15,2013-10-13 17:25:00,
2013-10-13 12:31:00,69.0,49.6,30.30,ENE,66,4.0,12.0,50,0.00,,,0.00,Wunderground v.1.15,2013-10-13 17:31:00,
2013-10-13 12:37:00,69.2,50.8,30.30,NE,34,4.0,12.0,52,0.00,,,0.00,Wunderground v.1.15,2013-10-13 17:37:00,
2013-10-13 12:43:00,69.4,50.5,30.29,ESE,120,3.0,12.0,51,0.00,,,0.00,Wunderground v.1.15,2013-10-13 17:43:00,
2013-10-13 12:49:00,69.6,51.2,30.29,NE,53,4.0,12.0,52,0.00,,,0.00,Wunderground v.1.15,2013-10-13 17:49:00,
2013-10-13 12:55:00,69.8,50.9,30.29,East,91,3.0,12.0,51,0.00,,,0.00,Wunderground v.1.15,2013-10-13 17:55:00,
2013-10-13 13:00:00,69.7,51.3,30.29,East,93,3.0,3.0,52,0.00,,,0.00,Wunderground v.1.15,2013-10-13 18:00:00,
2013-10-13 13:06:00,70.0,51.0,30.29,ESE,112,3.0,3.0,51,0.00,,,0.00,Wunderground v.1.15,2013-10-13 18:06:00,
2013-10-13 13:12:00,70.1,51.1,30.29,East,90,3.0,5.0,51,0.00,,,0.00,Wunderground v.1.15,2013-10-13 18:12:00,
2013-10-13 13:18:00,70.1,50.0,30.28,SW,228,5.0,5.0,49,0.00,,,0.00,Wunderground v.1.15,2013-10-13 18:18:00,
2013-10-13 13:23:00,70.3,50.8,30.27,North,11,4.0,5.0,50,0.00,,,0.00,Wunderground v.1.15,2013-10-13 18:23:00,
2013-10-13 13:29:00,70.1,50.6,30.27,SE,124,4.0,7.0,50,0.00,,,0.00,Wunderground v.1.15,2013-10-13 18:29:00,
2013-10-13 13:35:00,69.8,50.9,30.27,ENE,69,4.0,12.0,51,0.00,,,0.00,Wunderground v.1.15,2013-10-13 18:35:00,
2013-10-13 13:41:00,69.7,51.3,30.26,NE,46,4.0,12.0,52,0.00,,,0.00,Wunderground v.1.15,2013-10-13 18:41:00,
2013-10-13 13:47:00,70.2,51.7,30.26,SE,124,3.0,12.0,52,0.00,,,0.00,Wunderground v.1.15,2013-10-13 18:47:00,
2013-10-13 13:53:00,70.8,51.2,30.26,ENE,75,4.0,12.0,50,0.00,,,0.00,Wunderground v.1.15,2013-10-13 18:53:00,
2013-10-13 13:59:00,70.8,51.2,30.26,ESE,105,4.0,12.0,50,0.00,,,0.00,Wunderground v.1.15,2013-10-13 18:59:00,
2013-10-13 14:04:00,71.3,52.2,30.25,SE,129,4.0,8.0,51,0.00,,,0.00,Wunderground v.1.15,2013-10-13 19:04:00,
2013-10-13 14:10:00,71.6,52.0,30.25,NE,54,3.0,3.0,50,0.00,,,0.00,Wunderground v.1.15,2013-10-13 19:10:00,
2013-10-13 14:16:00,71.5,52.9,30.25,East,101,3.0,6.0,52,0.00,,,0.00,Wunderground v.1.15,2013-10-13 19:16:00,
2013-10-13 14:22:00,72.0,52.3,30.25,SW,231,3.0,6.0,50,0.00,,,0.00,Wunderground v.1.15,2013-10-13 19:22:00,
2013-10-13 14:27:00,72.0,52.9,30.24,ESE,110,3.0,6.0,51,0.00,,,0.00,Wunderground v.1.15,2013-10-13 19:27:00,
2013-10-13 14:33:00,72.0,52.9,30.24,East,89,3.0,9.0,51,0.00,,,0.00,Wunderground v.1.15,2013-10-13 19:33:00,
2013-10-13 14:39:00,72.5,54.4,30.24,ESE,107,2.0,9.0,53,0.00,,,0.00,Wunderground v.1.15,2013-10-13 19:39:00,
2013-10-13 14:45:00,72.8,53.6,30.24,NNE,16,2.0,9.0,51,0.00,,,0.00,Wunderground v.1.15,2013-10-13 19:45:00,
2013-10-13 14:51:00,73.0,55.4,30.24,ENE,71,3.0,9.0,54,0.00,,,0.00,Wunderground v.1.15,2013-10-13 19:51:00,
2013-10-13 14:57:00,73.4,53.1,30.23,NNW,347,3.0,9.0,49,0.00,,,0.00,Wunderground v.1.15,2013-10-13 19:57:00,
2013-10-13 15:03:00,73.4,53.6,30.23,NE,47,3.0,6.0,50,0.00,,,0.00,Wunderground v.1.15,2013-10-13 20:03:00,
2013-10-13 15:08:00,72.9,54.8,30.23,East,82,4.0,7.0,53,0.00,,,0.00,Wunderground v.1.15,2013-10-13 20:08:00,
2013-10-13 15:14:00,72.3,54.2,30.23,NE,49,4.0,4.0,53,0.00,,,0.00,Wunderground v.1.15,2013-10-13 20:14:00,
2013-10-13 15:20:00,72.0,54.9,30.23,ENE,60,3.0,3.0,55,0.00,,,0.00,Wunderground v.1.15,2013-10-13 20:20:00,
2013-10-13 15:26:00,72.4,54.3,30.22,NE,51,3.0,5.0,53,0.00,,,0.00,Wunderground v.1.15,2013-10-13 20:26:00,
2013-10-13 15:32:00,72.4,54.3,30.22,ESE,121,4.0,12.0,53,0.00,,,0.00,Wunderground v.1.15,2013-10-13 20:32:00,
2013-10-13 15:38:00,72.6,54.5,30.23,ESE,113,4.0,12.0,53,0.00,,,0.00,Wunderground v.1.15,2013-10-13 20:38:00,
2013-10-13 15:44:00,72.6,55.5,30.23,East,89,3.0,12.0,55,0.00,,,0.00,Wunderground v.1.15,2013-10-13 20:44:00,
2013-10-13 15:50:00,71.9,54.3,30.23,East,91,2.0,12.0,54,0.00,,,0.00,Wunderground v.1.15,2013-10-13 20:50:00,
2013-10-13 15:55:00,71.4,54.4,30.22,ESE,105,3.0,12.0,55,0.00,,,0.00,Wunderground v.1.15,2013-10-13 20:55:00,
2013-10-13 16:00:00,70.9,53.9,30.22,East,93,2.0,3.0,55,0.00,,,0.00,Wunderground v.1.15,2013-10-13 21:00:00,
2013-10-13 16:06:00,71.1,54.6,30.22,SSE,147,2.0,3.0,56,0.00,,,0.00,Wunderground v.1.15,2013-10-13 21:06:00,
2013-10-13 16:12:00,71.7,55.2,30.22,NE,49,2.0,4.0,56,0.00,,,0.00,Wunderground v.1.15,2013-10-13 21:12:00,
2013-10-13 16:17:00,71.8,55.3,30.22,East,100,3.0,6.0,56,0.00,,,0.00,Wunderground v.1.15,2013-10-13 21:17:00,
2013-10-13 16:23:00,72.0,54.9,30.22,East,79,3.0,4.0,55,0.00,,,0.00,Wunderground v.1.15,2013-10-13 21:23:00,
2013-10-13 16:29:00,72.3,55.7,30.22,ESE,117,2.0,5.0,56,0.00,,,0.00,Wunderground v.1.15,2013-10-13 21:29:00,
2013-10-13 16:35:00,72.3,54.7,30.22,East,94,3.0,10.0,54,0.00,,,0.00,Wunderground v.1.15,2013-10-13 21:35:00,
2013-10-13 16:40:00,72.4,55.3,30.22,East,92,3.0,10.0,55,0.00,,,0.00,Wunderground v.1.15,2013-10-13 21:40:00,
2013-10-13 16:46:00,72.4,55.3,30.22,East,86,3.0,10.0,55,0.00,,,0.00,Wunderground v.1.15,2013-10-13 21:46:00,
2013-10-13 16:52:00,72.4,55.8,30.22,ENE,69,3.0,10.0,56,0.00,,,0.00,Wunderground v.1.15,2013-10-13 21:52:00,
2013-10-13 16:57:00,72.4,55.3,30.21,ENE,78,3.0,10.0,55,0.00,,,0.00,Wunderground v.1.15,2013-10-13 21:57:00,
2013-10-13 17:03:00,72.3,55.2,30.21,ENE,61,3.0,3.0,55,0.00,,,0.00,Wunderground v.1.15,2013-10-13 22:03:00,
2013-10-13 17:09:00,72.1,54.5,30.21,ESE,105,3.0,6.0,54,0.00,,,0.00,Wunderground v.1.15,2013-10-13 22:09:00,
2013-10-13 17:15:00,72.1,55.5,30.21,NE,50,2.0,4.0,56,0.00,,,0.00,Wunderground v.1.15,2013-10-13 22:15:00,
2013-10-13 17:20:00,71.8,55.3,30.21,SE,124,2.0,2.0,56,0.00,,,0.00,Wunderground v.1.15,2013-10-13 22:20:00,
2013-10-13 17:26:00,71.4,54.9,30.21,SSE,159,2.0,3.0,56,0.00,,,0.00,Wunderground v.1.15,2013-10-13 22:26:00,
2013-10-13 17:32:00,70.9,54.9,30.21,ENE,76,2.0,7.0,57,0.00,,,0.00,Wunderground v.1.15,2013-10-13 22:32:00,
2013-10-13 17:38:00,70.4,55.4,30.21,ENE,66,1.0,7.0,59,0.00,,,0.00,Wunderground v.1.15,2013-10-13 22:38:00,
2013-10-13 17:43:00,70.0,55.0,30.21,East,98,1.0,7.0,59,0.00,,,0.00,Wunderground v.1.15,2013-10-13 22:43:00,
2013-10-13 17:49:00,69.7,54.7,30.20,SE,134,1.0,7.0,59,0.00,,,0.00,Wunderground v.1.15,2013-10-13 22:49:00,
2013-10-13 17:55:00,69.5,55.0,30.20,East,83,2.0,7.0,60,0.00,,,0.00,Wunderground v.1.15,2013-10-13 22:55:00,
2013-10-13 18:00:00,69.2,54.7,30.21,ENE,58,1.0,2.0,60,0.00,,,0.00,Wunderground v.1.15,2013-10-13 23:00:00,
2013-10-13 18:05:00,69.1,54.6,30.21,East,98,1.0,2.0,60,0.00,,,0.00,Wunderground v.1.15,2013-10-13 23:05:00,
2013-10-13 18:11:00,68.8,54.8,30.21,ESE,105,1.0,1.0,61,0.00,,,0.00,Wunderground v.1.15,2013-10-13 23:11:00,
2013-10-13 18:17:00,68.5,55.0,30.21,East,97,0.0,1.0,62,0.00,,,0.00,Wunderground v.1.15,2013-10-13 23:17:00,
2013-10-13 18:23:00,68.3,55.2,30.21,East,93,0.0,0.0,63,0.00,,,0.00,Wunderground v.1.15,2013-10-13 23:23:00,
2013-10-13 18:29:00,67.8,55.6,30.21,ESE,103,0.0,1.0,65,0.00,,,0.00,Wunderground v.1.15,2013-10-13 23:29:00,
2013-10-13 18:35:00,67.3,56.0,30.21,ENE,76,0.0,9.0,67,0.00,,,0.00,Wunderground v.1.15,2013-10-13 23:35:00,
2013-10-13 18:41:00,66.8,54.7,30.21,East,86,0.0,9.0,65,0.00,,,0.00,Wunderground v.1.15,2013-10-13 23:41:00,
2013-10-13 18:46:00,66.5,54.4,30.21,East,86,0.0,9.0,65,0.00,,,0.00,Wunderground v.1.15,2013-10-13 23:46:00,
2013-10-13 18:52:00,66.0,54.3,30.21,East,86,0.0,9.0,66,0.00,,,0.00,Wunderground v.1.15,2013-10-13 23:52:00,
2013-10-13 18:58:00,65.5,55.5,30.21,East,86,0.0,9.0,70,0.00,,,0.00,Wunderground v.1.15,2013-10-13 23:58:00,
2013-10-13 19:04:00,64.7,55.5,30.21,East,86,0.0,0.0,72,0.00,,,0.00,Wunderground v.1.15,2013-10-14 00:04:00,
2013-10-13 19:09:00,64.2,55.7,30.22,East,86,0.0,0.0,74,0.00,,,0.00,Wunderground v.1.15,2013-10-14 00:09:00,
2013-10-13 19:15:00,63.5,55.4,30.22,East,86,0.0,0.0,75,0.00,,,0.00,Wunderground v.1.15,2013-10-14 00:15:00,
2013-10-13 19:21:00,62.7,55.7,30.22,East,86,0.0,0.0,78,0.00,,,0.00,Wunderground v.1.15,2013-10-14 00:21:00,
2013-10-13 19:27:00,62.3,55.7,30.22,East,86,0.0,0.0,79,0.00,,,0.00,Wunderground v.1.15,2013-10-14 00:27:00,
2013-10-13 19:33:00,61.8,54.9,30.22,East,86,0.0,4.0,78,0.00,,,0.00,Wunderground v.1.15,2013-10-14 00:33:00,
2013-10-13 19:39:00,61.3,55.4,30.22,East,86,0.0,4.0,81,0.00,,,0.00,Wunderground v.1.15,2013-10-14 00:39:00,
2013-10-13 19:45:00,60.9,55.7,30.22,East,86,0.0,4.0,83,0.00,,,0.00,Wunderground v.1.15,2013-10-14 00:45:00,
2013-10-13 19:50:00,60.5,55.6,30.23,East,86,0.0,4.0,84,0.00,,,0.00,Wunderground v.1.15,2013-10-14 00:50:00,
2013-10-13 19:56:00,59.9,55.7,30.23,East,86,0.0,4.0,86,0.00,,,0.00,Wunderground v.1.15,2013-10-14 00:56:00,
2013-10-13 20:02:00,59.3,55.1,30.23,East,86,0.0,0.0,86,0.00,,,0.00,Wunderground v.1.15,2013-10-14 01:02:00,
2013-10-13 20:08:00,58.8,55.3,30.23,East,86,0.0,0.0,88,0.00,,,0.00,Wunderground v.1.15,2013-10-14 01:08:00,
2013-10-13 20:13:00,58.9,55.7,30.23,East,86,0.0,0.0,89,0.00,,,0.00,Wunderground v.1.15,2013-10-14 01:13:00,
2013-10-13 20:19:00,59.1,56.2,30.24,East,86,0.0,0.0,90,0.00,,,0.00,Wunderground v.1.15,2013-10-14 01:19:00,
2013-10-13 20:25:00,59.0,55.8,30.24,East,86,0.0,0.0,89,0.00,,,0.00,Wunderground v.1.15,2013-10-14 01:25:00,
2013-10-13 20:31:00,58.6,55.4,30.24,East,86,0.0,1.0,89,0.00,,,0.00,Wunderground v.1.15,2013-10-14 01:31:00,
2013-10-13 20:37:00,58.3,55.4,30.24,East,86,0.0,1.0,90,0.00,,,0.00,Wunderground v.1.15,2013-10-14 01:37:00,
2013-10-13 20:43:00,58.2,55.6,30.24,East,86,0.0,1.0,91,0.00,,,0.00,Wunderground v.1.15,2013-10-14 01:43:00,
2013-10-13 20:49:00,58.1,55.5,30.25,East,90,0.0,1.0,91,0.00,,,0.00,Wunderground v.1.15,2013-10-14 01:49:00,
2013-10-13 20:55:00,58.1,55.8,30.25,East,90,0.0,1.0,92,0.00,,,0.00,Wunderground v.1.15,2013-10-14 01:55:00,
2013-10-13 21:00:00,57.8,55.2,30.25,East,90,0.0,0.0,91,0.00,,,0.00,Wunderground v.1.15,2013-10-14 02:00:00,
2013-10-13 21:06:00,57.6,55.0,30.25,East,90,0.0,0.0,91,0.00,,,0.00,Wunderground v.1.15,2013-10-14 02:06:00,
2013-10-13 21:12:00,57.3,55.0,30.25,East,91,0.0,0.0,92,0.00,,,0.00,Wunderground v.1.15,2013-10-14 02:12:00,
2013-10-13 21:18:00,57.6,55.6,30.25,East,89,0.0,0.0,93,0.00,,,0.00,Wunderground v.1.15,2013-10-14 02:18:00,
2013-10-13 21:24:00,57.5,55.5,30.25,East,89,0.0,0.0,93,0.00,,,0.00,Wunderground v.1.15,2013-10-14 02:24:00,
2013-10-13 21:30:00,57.3,55.3,30.25,East,89,0.0,0.0,93,0.00,,,0.00,Wunderground v.1.15,2013-10-14 02:30:00,
2013-10-13 21:36:00,57.2,55.2,30.25,East,89,0.0,1.0,93,0.00,,,0.00,Wunderground v.1.15,2013-10-14 02:36:00,
2013-10-13 21:41:00,56.9,54.9,30.25,East,89,0.0,1.0,93,0.00,,,0.00,Wunderground v.1.15,2013-10-14 02:41:00,
2013-10-13 21:47:00,56.6,54.6,30.25,East,89,0.0,1.0,93,0.00,,,0.00,Wunderground v.1.15,2013-10-14 02:47:00,
2013-10-13 21:53:00,56.5,54.8,30.25,East,89,0.0,1.0,94,0.00,,,0.00,Wunderground v.1.15,2013-10-14 02:53:00,
2013-10-13 21:59:00,56.6,54.9,30.25,East,89,0.0,1.0,94,0.00,,,0.00,Wunderground v.1.15,2013-10-14 02:59:00,
2013-10-13 22:04:00,56.4,54.7,30.25,East,90,0.0,0.0,94,0.00,,,0.00,Wunderground v.1.15,2013-10-14 03:04:00,
2013-10-13 22:10:00,56.2,54.5,30.26,East,94,0.0,0.0,94,0.00,,,0.00,Wunderground v.1.15,2013-10-14 03:10:00,
2013-10-13 22:16:00,56.1,54.4,30.25,East,94,0.0,0.0,94,0.00,,,0.00,Wunderground v.1.15,2013-10-14 03:16:00,
2013-10-13 22:22:00,55.9,54.2,30.25,East,94,0.0,0.0,94,0.00,,,0.00,Wunderground v.1.15,2013-10-14 03:22:00,
2013-10-13 22:28:00,55.8,54.1,30.26,East,93,0.0,0.0,94,0.00,,,0.00,Wunderground v.1.15,2013-10-14 03:28:00,
2013-10-13 22:34:00,55.8,54.4,30.26,East,95,0.0,0.0,95,0.00,,,0.00,Wunderground v.1.15,2013-10-14 03:34:00,
2013-10-13 22:40:00,55.7,54.3,30.26,East,93,0.0,0.0,95,0.00,,,0.00,Wunderground v.1.15,2013-10-14 03:40:00,
2013-10-13 22:45:00,55.5,53.8,30.26,East,95,0.0,0.0,94,0.00,,,0.00,Wunderground v.1.15,2013-10-14 03:45:00,
2013-10-13 22:51:00,55.5,54.1,30.26,East,94,0.0,0.0,95,0.00,,,0.00,Wunderground v.1.15,2013-10-14 03:51:00,
2013-10-13 22:57:00,55.4,54.0,30.26,East,94,0.0,0.0,95,0.00,,,0.00,Wunderground v.1.15,2013-10-14 03:57:00,
2013-10-13 23:01:00,55.4,54.0,30.26,East,93,0.0,0.0,95,0.00,,,0.00,Wunderground v.1.15,2013-10-14 04:01:00,
2013-10-13 23:02:00,55.4,54.0,30.25,East,94,0.0,0.0,95,0.00,,,0.00,Wunderground v.1.15,2013-10-14 04:02:00,
2013-10-13 23:03:00,55.4,54.0,30.26,East,94,0.0,0.0,95,0.00,,,0.00,Wunderground v.1.15,2013-10-14 04:03:00,
2013-10-13 23:05:00,55.4,54.0,30.26,East,94,0.0,0.0,95,0.00,,,0.00,Wunderground v.1.15,2013-10-14 04:05:00,
2013-10-13 23:10:00,55.3,53.9,30.26,East,93,0.0,0.0,95,0.00,,,0.00,Wunderground v.1.15,2013-10-14 04:10:00,
2013-10-13 23:13:00,55.3,53.9,30.26,East,94,0.0,0.0,95,0.00,,,0.00,Wunderground v.1.15,2013-10-14 04:13:00,
2013-10-13 23:19:00,55.1,53.7,30.25,East,93,0.0,0.0,95,0.00,,,0.00,Wunderground v.1.15,2013-10-14 04:19:00,
2013-10-13 23:25:00,55.1,54.0,30.25,East,93,0.0,0.0,96,0.00,,,0.00,Wunderground v.1.15,2013-10-14 04:25:00,
2013-10-13 23:30:00,55.2,54.1,30.25,East,95,0.0,0.0,96,0.00,,,0.00,Wunderground v.1.15,2013-10-14 04:30:00,
2013-10-13 23:36:00,55.0,53.6,30.25,East,93,0.0,0.0,95,0.00,,,0.00,Wunderground v.1.15,2013-10-14 04:36:00,
2013-10-13 23:42:00,54.9,53.8,30.25,East,94,0.0,0.0,96,0.00,,,0.00,Wunderground v.1.15,2013-10-14 04:42:00,
2013-10-13 23:47:00,54.9,53.8,30.25,East,93,0.0,0.0,96,0.00,,,0.00,Wunderground v.1.15,2013-10-14 04:47:00,
2013-10-13 23:53:00,55.0,53.9,30.25,East,93,0.0,0.0,96,0.00,,,0.00,Wunderground v.1.15,2013-10-14 04:53:00,
2013-10-13 23:59:00,55.0,53.9,30.25,East,95,0.0,0.0,96,0.00,,,0.00,Wunderground v.1.15,2013-10-14 04:59:00,